Weather in Vpered

Russia / Republic of Dagestan     43°53′56″N   46°42′46″E
temp.,
°C
wind,
m/s
gust,
m/s
humid.,
%
clouds,
%
prec.,
mm/h
press.,
hPa
HPBL,
m
20 june, sun
sun2000:00+23e717705 0.0 1013447
03:00+24e8196175 0.0 1012480
06:00+27ese8184133 0.0 1011654
09:00+31ese1217360 0.0 1011824
12:00+32ese1417280 0.0 1011961
15:00+31ese14192897 0.0 1011938
18:00+29ese1220291 0.0 1011958
21:00+26ese1021340 0.0 1012669
21 june, mon
mon2100:00+25ese9193311 0.0 1012633
03:00+24ese8194469 0.0 1012585
06:00+27ese1018391 0.0 1012853
09:00+32ese1317190 0.0 10121203
12:00+34ese1417140 0.0 10121365
15:00+33ese1418160 0.0 10111307
18:00+29ese1219210 0.0 10101046
21:00+26e1020280 0.0 1011708
22 june, tue
tue2200:00+24e818460 0.0 1011492
03:00+23e717480 0.0 1010384
06:00+27ese615360 0.0 1011519
09:00+35ese1016140 0.0 10101643
12:00+37ese1317130 0.0 10101840
15:00+36ese1318130 0.0 10091729
18:00+32ese1118240 0.0 10091266
21:00+29ese1020333 0.0 1010749
23 june, wed
wed2300:00+25ese819529 0.0 1010520
03:00+26ese9204897 0.0 1010653
06:00+27se10194128 0.0 1012944
09:00+33se1015240 0.0 10131185
12:00+35ese1113170 0.0 10121266
15:00+34ese1013200 0.0 10121123
18:00+30ese914240 0.0 1013898
21:00+22ene512660 0.0 1014266
24 june, thu
thu2400:00+21e411660 0.0 1013198
03:00+21e49600 0.0 1013141
06:00+25ese49490 0.0 1013270
09:00+35se813160 0.0 10121403
12:00+38ese1114120 0.0 10121985
15:00+37ese1113130 0.0 10121652
18:00+32ese913200 0.0 10121047
21:00+23ene613640 0.0 1013266